Printer-friendly version

IAU Minor Planet Center

Minor Planet Center

MPEC 2009-U95 : 2009 UU19

The following Minor Planet Electronic Circular may be linked-to from your own Web pages, but must not otherwise be redistributed electronically.


Read MPEC 2009-U94 Read MPEC 2009-U96


M.P.E.C. 2009-U95                                Issued 2009 Oct. 25, 22:36 UT

     The Minor Planet Electronic Circulars contain information on unusual
         minor planets and routine data on comets.  They are published
   on behalf of Commission 20 of the International Astronomical Union by the
          Minor Planet Center, Smithsonian Astrophysical Observatory,
                          Cambridge, MA 02138, U.S.A.

             Prepared using the Tamkin Foundation Computer Network

                              MPC@CFA.HARVARD.EDU
          URL http://www.cfa.harvard.edu/iau/mpc.html  ISSN 1523-6714

                                   2009 UU19

Observations:
     K09U19U* C2009 10 24.27961 01 32 38.14 +04 31 34.0          22.1 V EU095G96
     K09U19U  C2009 10 24.28630 01 32 39.08 +04 30 49.4          21.2 V EU095G96
     K09U19U  C2009 10 24.29324 01 32 40.09 +04 30 02.3          21.9 V EU095G96
     K09U19U  C2009 10 24.29999 01 32 41.02 +04 29 17.1          22.4 V EU095G96
     K09U19U  C2009 10 24.33498 01 32 46.06 +04 25 22.6          21.2 V EU095G96
     K09U19U  C2009 10 24.33582 01 32 46.17 +04 25 17.8          20.9 V EU095G96
     K09U19U  C2009 10 24.33668 01 32 46.32 +04 25 10.5          21.8 V EU095G96
     K09U19U  C2009 10 24.33753 01 32 46.42 +04 25 05.0          21.7 V EU095G96
     K09U19U  C2009 10 25.21950 01 35 11.25 +02 48 13.8          21.9 V EU095G96
     K09U19U  C2009 10 25.22024 01 35 11.36 +02 48 09.9          22.7 V EU095G96
     K09U19U  C2009 10 25.22098 01 35 11.47 +02 48 04.3          21.5 V EU095G96
     K09U19U  C2009 10 25.22173 01 35 11.61 +02 47 58.8          21.8 V EU095G96
     K09U19U  C2009 10 25.22338 01 35 11.83 +02 47 48.9          21.6 V EU095G96
     K09U19U  C2009 10 25.22413 01 35 11.97 +02 47 43.0          21.9 V EU095G96
     K09U19U  C2009 10 25.22488 01 35 11.97 +02 47 39.4          21.8 V EU095G96
     K09U19U  C2009 10 25.22564 01 35 12.15 +02 47 34.0          21.2 V EU095G96
     K09U19U  C2009 10 25.24159 01 35 14.12 +02 45 50.2          20.3 R EU095H01
     K09U19U  C2009 10 25.26405 01 35 17.24 +02 43 25.1          20.4 R EU095H01
     K09U19U  C2009 10 25.27385 01 35 18.60 +02 42 21.7          20.6 R EU095H01
     K09U19U  C2009 10 25.28029 01 35 19.51 +02 41 40.3          20.4 R EU095H01

Observer details:
G96 Mt. Lemmon Survey.  Observer A. Boattini.  Measurers E. C. Beshore,
    A. Boattini, G. J. Garradd, A. R. Gibbs, A. D. Grauer, R. E. Hill,
    R. A. Kowalski, S. M. Larson, R. H. McNaught.  1.5-m reflector + CCD.
H01 Magdalena Ridge Observatory, Socorro.  Observers W. H. Ryan, E. V. Ryan.
    Measurer W. H. Ryan.  2.4-m f/8.9 reflector + CCD.

Orbital elements:
2009 UU19                                                Earth MOID = 0.1350 AU
Epoch 2010 Jan. 4.0 TT = JDT 2455200.5                  MPC
M  57.66980              (2000.0)            P               Q
n   0.55830912     Peri.  153.05318     +0.99014124     +0.00260699
a   1.4606727      Node   207.89327     -0.02195516     +0.99035709
e   0.2381272      Incl.   17.41916     +0.13834124     +0.13851370
P   1.77           H   24.8           G   0.15           U   9
Residuals in seconds of arc
091024 G96  0.3+  0.3-    091024 G96  0.2-  0.2-    091025 G96  0.8-  0.2+
091024 G96  0.0   0.1+    091025 G96  0.4-  0.1-    091025 G96  0.3+  0.3-
091024 G96  0.2+  0.4-    091025 G96  0.3-  0.7+    091025 H01  0.2-  0.3+
091024 G96  0.3-  0.2-    091025 G96  0.2-  0.1-    091025 H01  0.1-  0.3+
091024 G96  0.0   0.3+    091025 G96  0.4+  0.7-    091025 H01  0.0   0.2+
091024 G96  0.2-  1.1+    091025 G96  0.2+  0.0     091025 H01  0.3+  0.3+
091024 G96  0.2+  0.4-    091025 G96  0.7+  1.0-

Ephemeris:
2009 UU19                a,e,i = 1.46, 0.24, 17                  q = 1.1128
Date    TT    R. A. (2000) Decl.     Delta      r     Elong.  Phase     V
2009 10 26    01 37.21   +01 26.0    0.152    1.143   167.5    10.8    21.7
2009 10 27    01 39.74   -00 15.8    0.155    1.145   165.6    12.5    21.8
2009 10 28    01 42.19   -01 52.9    0.159    1.147   163.6    14.1    21.9
2009 10 29    01 44.55   -03 25.2    0.163    1.149   161.8    15.7    22.0
2009 10 30    01 46.83   -04 52.7    0.166    1.151   160.0    17.2    22.1
2009 10 31    01 49.04   -06 15.5    0.170    1.153   158.2    18.6    22.2
2009 11 01    01 51.18   -07 33.6    0.175    1.155   156.6    20.0    22.3
2009 11 02    01 53.24   -08 47.2    0.179    1.157   154.9    21.3    22.4
2009 11 03    01 55.24   -09 56.4    0.183    1.159   153.4    22.5    22.5
2009 11 04    01 57.18   -11 01.3    0.188    1.161   151.9    23.7    22.6
2009 11 05    01 59.05   -12 02.1    0.193    1.163   150.5    24.8    22.7

Timothy B. Spahr             (C) Copyright 2009 MPC           M.P.E.C. 2009-U95

Read MPEC 2009-U94 Read MPEC 2009-U96

Valid HTML 4.01!